Find Starlink 32399

NORAD ID: 61627 Int'l Des: 2024-191 Owner: SPXS Country: US Constellation: starlink operational
LEOCIRCULAR

实时位置

正在加载3D地球...

关于 Starlink 32399

正在加载描述...

即将过境

Passes for default location (London). Set your location on the main map for personalized predictions.

高度历史

Loading altitude history...

两行轨道根数

1 61627U 24191G 26125.19283544 -.00003716 00000-0 -12551-3 0 9997
2 61627 43.0001 187.9709 0001233 275.0308 85.0403 15.27593459 86269
Epoch: May 5, 2026 • Age: 5 hours

当前状态

高度 488.8 km
速度 7.62 km/s
星下点 -25.62°S, 155.41°E
发射日期 Oct 23, 2024
运行时间 1.5 years
类型 internet

技术详情

分类 Payload
质量 730.00 kg
干质量 700.00 kg
总质量 730.00 kg
长度 0.30 m
直径 4.10 m
跨度 29.00 m
形状 Box + pan
制造商 SPXS
平台类型 Starlink V2M
阶段状态 In Orbit
所有者/国家 SPXS/US

Most Searched